sat.trackr.live / text

‹ back to catalog

KUIPER-00420

NORAD 68932 · 2026-098P

PAYLOAD ACTIVE UNKNOWN

§ Identity

Operator
Country
US
Launch date
2026-04-30
Launch site
FRGUI
Launch vehicle
Mass (kg)
RCS (m²)

External: N2YO · Heavens-Above · Gunter

§ Orbital elements

Epoch: 2026-09-19T23:05:18.447648Z

Period
97.30 min
Inclination
51.9049°
Eccentricity
0.0000187
Mean motion
14.79955508 rev/d
Perigee alt
629.3 km
Apogee alt
629.6 km
Semi-major
7,007.6 km
B*
3.4014e-4
RAAN
346.5389°
Arg perigee
261.4186°
Mean anomaly
98.6755°
Rev number
2,169

§ Raw data

KUIPER-004201 68932U 26098P   26262.96201907  .00002374  00000+0  34014-3 0  99952 68932  51.9049 346.5389 0000187 261.4186  98.6755 14.79955508 21691

JSON: /api/v1/satellites/68932 · /tle

For live sub-satellite position, see the globe view (requires WebGL).

§ Visibility from observer

Set your observer location to see the next 7 days of passes ≥ 10°. The values pass through the URL so the page stays shareable.

No JS? Fill the form by hand. The geolocation button needs JavaScript.